,

(GMT )
Al Udeid

Weather History for KQIR - May, 2014

Change the Weather History Date:

Saturday, May 10, 2014

  Actual Average Record
Temperature  
Mean Temperature 87 °F -  
Max Temperature 100 °F - - ()
Min Temperature 74 °F - - ()
Cooling Degree Days 22    
Growing Degree Days 37 (Base 50)    
Moisture  
Dew Point 59 °F    
Average Humidity 38    
Maximum Humidity 57    
Minimum Humidity 23    
Precipitation  
Precipitation 0.00 in - - ()
Sea Level Pressure  
Sea Level Pressure 29.69 in    
Wind  
Wind Speed 11 mph ()    
Max Wind Speed 26 mph    
Max Gust Speed 32 mph    
Visibility 5.1 miles    
Events      
Averages and records for this station are not official NWS values.
T = Trace of Precipitation, MM = Missing Value Source: Averaged Metar Reports

Daily Weather History Graph

Daily Weather History Graph

Search for Another Location

Airport or City:

Trip Planner

Search our weather history database for the weather conditions in past years. The results will help you decide how hot, cold, wet, or windy it might be!

Date:

Astronomy

May. 10, 2014 Rise Set
Actual Time 4:52 AM +03 6:09 PM +03
Civil Twilight 4:28 AM +03 6:34 PM +03
Nautical Twilight 3:59 AM +03 7:03 PM +03
Astronomical Twilight 3:29 AM +03 7:33 PM +03
Moon 2:08 PM +03 (5/10) 1:44 AM +03 (5/10)
Length of Visible Light 14h 05m
Length of Day
13h 16m
Waxing Gibbous, 79% of the Moon is Illuminated
May 10
Waxing Gibbous
May 14
Full
May 21
Last Quarter
May 28
New
Jun 5
First Quarter

Hourly Weather History & Observations

Time (+03) Temp. Heat Index Dew Point Humidity Pressure Visibility Wind Dir Wind Speed Gust Speed Precip Events Conditions
12:58 AM 77.4 °F - 61.2 °F 57% 29.70 in 6.2 mi West 5.8 mph - N/A   Clear
1:58 AM 78.6 °F - 58.5 °F 50% 29.70 in 6.2 mi WNW 4.6 mph - N/A   Clear
2:58 AM 79.5 °F - 57.6 °F 47% 29.70 in 6.2 mi NNW 8.1 mph - N/A   Partly Cloudy
3:58 AM 78.3 °F - 55.0 °F 45% 29.68 in 6.2 mi WNW 2.3 mph - N/A   Mostly Cloudy
4:58 AM 74.8 °F - 55.6 °F 51% 29.68 in 6.2 mi West 3.5 mph - N/A   Clear
5:58 AM 77.0 °F - 55.0 °F 47% 29.70 in 6.2 mi WSW 8.1 mph - N/A   Clear
6:55 AM 82.6 °F 82.8 °F 59.9 °F 46% 29.71 in 5.6 mi West 10.4 mph - N/A   Haze
6:59 AM 82.6 °F 82.8 °F 59.9 °F 46% 29.72 in 5.6 mi West 10.4 mph - N/A   Haze
7:58 AM 87.4 °F 86.3 °F 57.4 °F 36% 29.75 in 6.2 mi NW 18.4 mph - N/A   Clear
8:58 AM 93.4 °F 94.3 °F 62.4 °F 36% 29.73 in 5.6 mi NNW 19.6 mph - N/A   Haze
9:58 AM 97.3 °F 97.9 °F 60.6 °F 30% 29.73 in 3.7 mi NNW 18.4 mph - N/A   Widespread Dust
10:58 AM 98.6 °F 99.4 °F 60.8 °F 29% 29.72 in 3.1 mi NW 23.0 mph 31.1 mph N/A   Widespread Dust
11:13 AM 98.6 °F 100.0 °F 62.6 °F 30% 29.71 in - NW 20.7 mph 32.2 mph N/A   Widespread Dust
11:58 AM 98.6 °F 99.4 °F 60.8 °F 29% 29.70 in 1.7 mi NW 23.0 mph 28.8 mph N/A   Widespread Dust
12:39 PM 98.6 °F 99.4 °F 60.8 °F 29% 29.68 in 2.5 mi NNW 24.2 mph 28.8 mph N/A   Haze
12:58 PM 99.1 °F 98.4 °F 57.6 °F 25% 29.68 in 2.5 mi NNW 24.2 mph - N/A   Widespread Dust
1:58 PM 100.2 °F 99.0 °F 55.9 °F 23% 29.67 in 3.1 mi NNW 25.3 mph 31.1 mph N/A   Widespread Dust
2:58 PM 100.0 °F 99.2 °F 56.8 °F 24% 29.65 in 3.7 mi NNW 26.5 mph 31.1 mph N/A   Widespread Dust
3:58 PM 98.6 °F 96.8 °F 54.3 °F 23% 29.65 in 3.7 mi NNW 23.0 mph - N/A   Widespread Dust
4:58 PM 97.0 °F 95.7 °F 56.3 °F 26% 29.65 in 6.2 mi NNW 19.6 mph - N/A   Clear
5:58 PM 94.6 °F 92.9 °F 55.4 °F 27% 29.66 in 6.2 mi NNW 15.0 mph - N/A   Clear
6:58 PM 91.0 °F 90.2 °F 58.8 °F 34% 29.67 in 6.2 mi North 8.1 mph - N/A   Clear
7:58 PM 89.1 °F 89.0 °F 60.8 °F 39% 29.70 in 6.2 mi NW 8.1 mph - N/A   Clear
8:58 PM 87.4 °F 87.7 °F 61.5 °F 42% 29.70 in 6.2 mi NW 10.4 mph - N/A   Clear
9:58 PM 86.2 °F 86.8 °F 62.4 °F 45% 29.70 in 6.2 mi NW 6.9 mph - N/A   Clear
10:58 PM 85.5 °F 87.1 °F 65.1 °F 50% 29.70 in 6.2 mi NW 6.9 mph - N/A   Clear
11:58 PM 83.1 °F 85.0 °F 65.7 °F 55% 29.70 in 6.2 mi WNW 6.9 mph - N/A   Clear